Location: *
(50.2903°S, 172.5375°W)
Time: 08:28:36
(UTC+00:00)

Cosmos 2228 - Pass Details

Date: 17 November 2019
Orbit: 589 x 618 km, 82.5° (Epoch: 10 December)

Event Time Altitude Azimuth Distance (km) Brightness Sun altitude
Exits shadow 14:24:17 12° 316° (NW) 1,861 4.8 -9.2°
Maximum altitude 14:27:59 35° 252° (WSW) 1,018 4.0 -8.7°
Drops below altitude 10° 14:32:08 10° 185° (S) 2,028 6.3 -8.3°
Sets 14:34:34 0° 176° (S) 2,943 7.3 -8.0°
